Location: Noordwijk
(52.2400°N, 4.4500°E)
Time: 22:27:31
(UTC+00:00)

FO-29 - Pass Details

Date: 02 December 2022
Orbit: 799 x 1322 km, 98.5° (Epoch: 01 February)

Event Time Altitude Azimuth Distance (km) Brightness Sun altitude
Rises 03:46:13 0° 25° (NNE) 3,970 13.1 -33.2°
Reaches altitude 10° 03:51:08 10° 56° (NE) 2,866 12.6 -32.4°
Maximum altitude 03:53:18 12° 76° (ENE) 2,672 12.6 -32.1°
Drops below altitude 10° 03:55:24 10° 96° (E) 2,737 12.7 -31.8°
Sets 03:59:46 0° 128° (SE) 3,553 13.1 -31.1°
